Regional Weather Roundup
Issued by NWS Sterling, VA

Home | Current Version | Previous Version | Graphics & Text | Print | Product List | Glossary On
Versions: 1 2 3 4 5 6 7 8 9 10 11 12 13 14 15 16 17 18 19 20 21 22 23 24 25 26 27 28 29 30 31 32 33 34 35 36 37 38 39 40 41 42 43 44 45 46 47 48 49 50
000
ASUS41 KLWX 291510
RWRLWX

REGIONAL WEATHER ROUNDUP
NATIONAL WEATHER SERVICE BALTIMORE MD/WASHINGTON DC
1100 AM EDT FRI JUL 29 2016

Note: "FAIR" indicates few or no clouds below 12,000 feet
with no significant weather and/or obstructions to visibility.
 TC=TEMPERATURE CELSIUS

 * =Non NWS site. Station does not report precipitation (e.g. rain,
    snow, etc.), thunder, or fog.

DCZ001-MDZ009-015-VAZ040>042-051-053>054-291600-
WASHINGTON METRO

CITY           SKY/WX    TMP DP  RH WIND       PRES   REMARKS
WASHINGTON NAT PTSUNNY   80  69  69 N12       29.89S
DULLES         PTSUNNY   81  69  67 N10       29.90S
ANDREWS AFB    PTSUNNY   78  69  74 N9        29.89R
FT BELVOIR     FAIR      80  70  70 VRB5      29.89S
QUANTICO       PTSUNNY   81  70  69 NE12      29.90R
LEESBURG*      FAIR      81  72  74 NE5       29.91F
MANASSAS*      MOSUNNY   81  70  69 N8        29.90S
GAITHERSBURG*  MOSUNNY   79  70  73 CALM      29.94S

$$

MDZ006>007-011-014-291600-
BALTIMORE METRO

CITY           SKY/WX    TMP DP  RH WIND       PRES   REMARKS
BWI AIRPORT    MOSUNNY   82  69  64 NW8       29.87S
MD SCIENCE CTR   N/A     81  67  62 MISG      29.89S
MARTIN STATE   MOSUNNY   81  73  78 NW7       29.88R
ANNAPOLIS      MOSUNNY   80  71  74 N8        29.87R
FORT MEADE*    MOSUNNY   79  70  73 NW8       29.91R

$$

MDZ012-015-019>023-291600-
MARYLAND EASTERN SHORE

CITY           SKY/WX    TMP DP  RH WIND       PRES   REMARKS
OCEAN CITY       N/A    N/A N/A N/A MISG      29.83R
SALISBURY      CLOUDY    79  73  83 MISG      29.84R
BAY BRIDGE AP* MOSUNNY   79  73  83 N13       29.87R
CAMBRIDGE*     CLOUDY    79  72  78 NW8       29.86R
EASTON*        PTSUNNY   81  75  83 N6        29.90R

$$

MDZ017>025-291600-
SOUTHERN MARYLAND

CITY           SKY/WX    TMP DP  RH WIND       PRES   REMARKS
PATUXENT RIVER PTSUNNY   80  72  76 NW10      29.87R
ST INIGOES     PTSUNNY   80  73  79 VRB6      29.87R
LEONARDTOWN*     N/A     77  70  78 MISG        N/A

$$

MDZ003>005-291600-
NORTH CENTRAL MARYLAND

CITY           SKY/WX    TMP DP  RH WIND       PRES   REMARKS
FREDERICK*     MOSUNNY   81  70  69 NE7       29.92S
HAGERSTOWN APT SUNNY     81  68  64 VRB6      29.91S

$$

MDZ501>502-291600-
WESTERN MARYLAND

CITY           SKY/WX    TMP DP  RH WIND       PRES   REMARKS
OAKLAND*       CLOUDY    66  63  88 W3        30.05S
CUMBERLAND*    MOSUNNY   81  68  65 N7        29.97F

$$

VAZ025>031-291600-
SHENANDOAH VALLEY

CITY           SKY/WX    TMP DP  RH WIND       PRES   REMARKS
WINCHESTER*    FAIR      79  68  69 NE3       29.92S
FRONT ROYAL*   PTSUNNY   77  70  78 NW7       29.92S
LURAY*         NOT AVBL
NEW MARKET*    CLOUDY    76  69  78 CALM      29.94R
STAUNTON*      CLOUDY    76  68  76 E3        29.98S
WAYNESBORO*    CLOUDY    76  67  73 N5        29.98S

$$

WVZ021-048>050-054>055-291600-
EASTERN WEST VIRGINIA PANHANDLE

CITY           SKY/WX    TMP DP  RH WIND       PRES   REMARKS
MARTINSBURG    FAIR      81  68  64 N9        29.91S
PETERSBURG*    CLOUDY    75  70  84 CALM      29.97R

$$

VAZ036>039-050-291600-
CENTRAL FOOTHILLS

CITY           SKY/WX    TMP DP  RH WIND       PRES   REMARKS
CHARLOTTESVILL FAIR      82  67  60 NW8       29.93R
CULPEPER*      CLOUDY    80  71  75 N6        29.92S
ORANGE*          N/A     79  72  78 NW8       29.94S
GORDONSVILLE*  CLOUDY    79  71  76 N8        29.92S
WARRENTON*     FAIR      81  66  60 CALM      29.90F

$$

VAZ055>057-291600-
NORTH AND CENTRAL PIEDMONT

CITY           SKY/WX    TMP DP  RH WIND       PRES   REMARKS
FREDERICKSBRG* FAIR      80  71  75 N12       29.89S
STAFFORD*      PTSUNNY   80  70  71 NW9       29.94S

$$

NCZ024-NYZ072-PAZ021-071-VAZ022-071-291600-
OTHER REGIONAL OBSERVATIONS

CITY           SKY/WX    TMP DP  RH WIND       PRES   REMARKS
NEW YORK CITY  CLOUDY    73  68  84 NE8       29.89R
PHILADELPHIA   MOSUNNY   80  69  69 N15G22    29.85R
PITTSBURGH     CLOUDY    72  66  81 CALM      29.98R
ROANOKE        FAIR      80  66  62 NW10      29.99R
RICHMOND       PTSUNNY   79  72  79 N10G21    29.90R
RALEIGH        MOSUNNY   85  69  58 NW8       29.93R

$$

ANZ530>537-291600-
MARINE OBSERVATIONS

STATION/POSITION TIME  TEMP    WIND        PRES
                       AIR SEA DIR/SP/G
                 (UTC) (F)     (DEG/KT/KT) (MB)
THOMAS PT LIGHT  1500   77 83  360/ 10/ 12 1013.0R
BALT KEY BRIDGE  1448   79     340/  5/  6 1011.4R
COVE POINT       1448   77      20/ 11/ 16 1012.1R
LEWISETTA        1448   78 85  350/  9/ 16 1011.3R
SOLOMONS ISLAND  1448   78 85  340/  9/ 14   N/A
PINEY POINT      1448          350/  9/ 10   N/A

$$




USA.gov is the U.S. government's official web portal to all federal, state and local government web resources and services.